Simultaneous Nadir Overpasses (SNOs) Predictions

Prediction of SNOs between TERRA and METOP-C Satellite Orbit:

Table of predicted SNOs for the next 14.0 days since TLE Epoch: 8/21/2021
Index Date (TERRA) Time (TERRA) Lat,Lon (TERRA) SZA (TERRA ) Date (METOP-C) Time (METOP-C) Lat,Lon (METOP-C) SZA (METOP-C ) Distance(km) Time Diff (sec)
1 08/21/2021 16:11:54 81.29, -17.41 71.99 08/21/2021 16:11:14 81.29, -17.46 71.97 0.91 40
2 08/21/2021 17:01:20 -81.31, 150.48 107.96 08/21/2021 17:01:52 -81.31, 150.61 107.94 2.13 32
3 08/24/2021 11:46:05 81.29, 49.01 72.96 08/24/2021 11:45:33 81.30, 49.14 72.96 2.24 32
4 08/24/2021 12:35:31 -81.31,-143.07 106.99 08/24/2021 12:36:12 -81.30,-143.16 106.99 1.65 41
5 08/27/2021 07:20:17 81.29, 115.39 73.94 08/27/2021 07:19:54 81.29, 115.34 73.93 0.94 23
6 08/27/2021 08:09:43 -81.31, -76.66 106.01 08/27/2021 08:10:32 -81.31, -76.54 105.97 1.94 49
7 08/30/2021 02:54:29 81.28,-178.26 74.94 08/30/2021 02:54:14 81.29,-178.09 74.96 3.12 15
8 08/30/2021 03:43:55 -81.30, -10.29 105.00 08/30/2021 03:44:53 -81.30, -10.33 104.98 0.74 58
9 09/01/2021 22:28:39 81.30,-111.58 76.01 09/01/2021 22:28:33 81.30,-111.54 76.01 0.68 6



Historial Predications of SNOs between TERRA and METOP-C
